Preview of NWS' New Version of Forecast
This preview is not operational and should not be used for support decisions.

Regional Weather Roundup (RWR)

Issued by Gray - Portland, ME (GYX)

                            
000
ASUS41 KGYX 240610
RWRGYX
WEATHER ROUNDUP FOR MAINE AND NEW HAMPSHIRE
NATIONAL WEATHER SERVICE GRAY ME
200 AM EDT MON JUN 24 2019

MEZ002-005-006-010-012-015-018-020-021-024-026-027-029-240700-
MAINE
  
CITY           SKY/WX    TMP DP  RH WIND       PRES   REMARKS
PORTLAND       FAIR      59  48  67 NW8       29.76S                  
6HR MIN TEMP:  59; 6HR MAX TEMP:  78;                                

SANFORD        FAIR      53  50  89 W3        29.78S                  
BAR HARBOR     FAIR      54  53  97 N3        29.75S                  
WISCASSET      FAIR      56  51  84 CALM      29.77R                  
6HR MIN TEMP:  56; 6HR MAX TEMP:  77;                                

ROCKLAND       FAIR      54  52  93 N5        29.76R                  
FRYEBURG       FAIR      63  43  48 NW6       29.79S                  
6HR MIN TEMP:  59; 6HR MAX TEMP:  76;                                

LEWISTONAUBURN FAIR      61  48  62 N7        29.78R                  
AUGUSTA        FAIR      60  48  64 N9        29.77S                  
6HR MIN TEMP:  60; 6HR MAX TEMP:  76;                                

WATERVILLE     FAIR      62  43  49 N7        29.75R                  
BANGOR         FAIR      53  52  96 CALM      29.77R                  
6HR MIN TEMP:  52; 6HR MAX TEMP:  66;                                

GREENVILLE       N/A     52  41  66 CALM      29.78R                  
6HR MIN TEMP:  51; 6HR MAX TEMP:  67;                                

MILLINOCKET    FAIR      52  43  71 CALM      29.78S                  
6HR MIN TEMP:  52; 6HR MAX TEMP:  73;                                

HOULTON        FAIR      43  40  89 CALM      29.74S                  
6HR MIN TEMP:  41; 6HR MAX TEMP:  65;                                

PRESQUE ISLE   FAIR      43  41  93 CALM      29.77R                  
6HR MIN TEMP:  42; 6HR MAX TEMP:  64;                                

FRENCHVILLE    FAIR      49  36  61 NW9       29.76S                  
6HR MIN TEMP:  49; 6HR MAX TEMP:  64;                                

CARIBOU        FAIR      50  38  63 NW6       29.75R                  
6HR MIN TEMP:  50; 6HR MAX TEMP:  64;                                

$$

NHZ002-005-008-009-011-012-014-240700-
NEW HAMPSHIRE
  
CITY           SKY/WX    TMP DP  RH WIND       PRES   REMARKS
PORTSMOUTH     PTCLDY    64  49  59 SW6       29.77S                  
ROCHESTER      FAIR      64  47  53 CALM      29.78S                  
6HR MIN TEMP:  64; 6HR MAX TEMP:  79;                                

NASHUA         FAIR      62  57  83 NW7       29.82S                  
MANCHESTER     FAIR      65  54  67 S3        29.80R                  
6HR MIN TEMP:  65; 6HR MAX TEMP:  81;                                

CONCORD        FAIR      55  49  80 CALM      29.81S                  
6HR MIN TEMP:  54; 6HR MAX TEMP:  78;                                

LACONIA        FAIR      59  51  75 CALM      29.81S                  
PLYMOUTH       FAIR      58  49  72 W8        29.81S                  
BERLIN         FAIR      48  45  89 CALM      29.82R                  
6HR MIN TEMP:  48; 6HR MAX TEMP:  73;                                

WHITEFIELD     FAIR      49  45  86 CALM      29.83S                  
6HR MIN TEMP:  49; 6HR MAX TEMP:  72;                                

JAFFREY        FAIR      65  51  60 W3        29.86S                  
6HR MIN TEMP:  65; 6HR MAX TEMP:  77;                                

KEENE          FAIR      58  55  90 CALM      29.85R                  
LEBANON        FAIR      55  48  77 CALM      29.83S                  
6HR MIN TEMP:  54; 6HR MAX TEMP:  80;                                

MT WASHINGTON  PTCLDY    43  32  65 N41G53      N/A                   
6HR MIN TEMP:  43; 6HR MAX TEMP:  48;                                

$$

VTZ005-007-008-240700-
VERMONT
  
CITY           SKY/WX    TMP DP  RH WIND       PRES   REMARKS
ST JOHNSBURY     N/A     54  49  83 MISG      29.81R                  
MONTPELIER     FAIR      59  48  67 NW3       29.88S                  
BURLINGTON     FAIR      59  53  80 E3        29.83R                  
$$

MAZ007-012-024-CTZ003-RIZ002-NYZ038-NYZ072-240700-
SOUTHERN NEW ENGLAND AND NY
  
CITY           SKY/WX    TMP DP  RH WIND       PRES   REMARKS
BOSTON         FAIR      73  53  49 W10       29.79F                  
WORCESTER      FAIR      64  52  64 W10       29.85F                  
NANTUCKET      FAIR      63  59  87 W12       29.79F                  
PROVIDENCE     FAIR      70  60  70 NW8       29.81F                  
HARTFORD       MOCLDY    70  49  47 NW8       29.84F                  
ALBANY         FAIR      64  48  56 CALM      29.87F                  
NEW YORK CITY  FAIR      74  54  49 NW7       29.87S                  
$$

ANZ081-ANZ082-ANZ150-NHZ014-MEZ023>029-240700-
COASTAL MARINE OBSERVATIONS
  
STATION/POSITION TIME  TEMP    WIND        PRES    WAVE
                       AIR SEA DIR/SP/G            HT/PER
                 (UTC) (F)     (DEG/KT/KT) (MB)    (FT/S)
ISLE OF SHOALS   0500   72     280/ 15/ 16 1007.4F
JEFFREYS LEDGE   0538      59                N/A     1/10
$$

.............KEY..............
   WCI - WIND CHILL
   TC  - TEMPERATURE IN CELSIUS
   VSB - VISIBILITY IN MILES
   HX  - HEAT INDEX
   FAIR- INDICATES FEW OR NO CLOUDS BELOW 12,000 FT, WITH NO 
         SIGNIFICANT WEATHER AND/OR OBSTRUCTIONS TO VISIBILITY.